Weather History for Weatherford, OK

Change the Weather History Date:

Monday, November 4, 2013

  Actual Average (KJWG) Record (KJWG)
Temperature  
Mean Temperature 57 °F -  
Max Temperature 68 °F 61 °F 87 °F (2005)
Min Temperature 46 °F 39 °F 23 °F (1991)
Degree Days  
Heating Degree Days 8    
Growing Degree Days 7 (Base 50)    
Moisture  
Dew Point 48 °F    
Average Humidity 72    
Maximum Humidity 88    
Minimum Humidity 49    
Precipitation  
Precipitation 0.00 in - - ()
Sea Level Pressure  
Sea Level Pressure 29.95 in    
Wind  
Wind Speed 13 mph (South)    
Max Wind Speed 20 mph    
Max Gust Speed 28 mph    
Visibility 10 miles    
Events      
Averages and records for this station are not official NWS values.
T = Trace of Precipitation, MM = Missing Value Source: NWS Daily Summary

Daily Weather History Graph

Daily Weather History Graph

Search for Another Location

Airport:

Trip Planner

Search our weather history database for the weather conditions in past years. The results will help you decide how hot, cold, wet, or windy it might be!

Date:

Astronomy

Nov. 04, 2013 Rise Set
Actual Time 6:59 AM CST 5:36 PM CST
Civil Twilight 6:33 AM CST 6:02 PM CST
Nautical Twilight 6:02 AM CST 6:33 PM CST
Astronomical Twilight 5:32 AM CST 7:02 PM CST
Moon 8:09 AM CST (11/4) 6:44 PM CST (11/4)
Length of Visible Light 11h 29m
Length of Day
10h 36m
New Moon, 2% of the Moon is Illuminated
Nov 4
New Moon
Nov 9
First Quarter
Nov 17
Full
Nov 25
Last Quarter
Dec 2
New

Hourly Weather History & Observations

Time (CST) Temp. Windchill Dew Point Humidity Pressure Visibility Wind Dir Wind Speed Gust Speed Precip Events Conditions
12:15 AM 53.6 °F - 42.8 °F 67% 29.89 in 10.0 mi South 19.6 mph 27.6 mph N/A   Mostly Cloudy
12:35 AM 53.6 °F - 42.8 °F 67% 29.89 in 10.0 mi South 17.3 mph 26.5 mph N/A   Scattered Clouds
12:55 AM 53.6 °F - 42.8 °F 67% 29.88 in 10.0 mi South 17.3 mph 24.2 mph N/A   Clear
1:15 AM 51.8 °F - 42.8 °F 71% 29.87 in 10.0 mi South 18.4 mph 25.3 mph N/A   Clear
1:35 AM 51.8 °F - 42.8 °F 71% 29.87 in 10.0 mi South 19.6 mph 24.2 mph N/A   Clear
1:55 AM 51.8 °F - 42.8 °F 71% 29.87 in 10.0 mi South 17.3 mph 23.0 mph N/A   Clear
2:15 AM 50.0 °F - 42.8 °F 76% 29.87 in 10.0 mi South 12.7 mph 19.6 mph N/A   Clear
2:35 AM 50.0 °F - 42.8 °F 76% 29.87 in 10.0 mi South 12.7 mph - N/A   Clear
2:55 AM 50.0 °F - 42.8 °F 76% 29.87 in 10.0 mi South 9.2 mph - N/A   Clear
3:15 AM 50.0 °F - 42.8 °F 76% 29.88 in 10.0 mi SSE 10.4 mph 16.1 mph N/A   Clear
3:35 AM 50.0 °F - 42.8 °F 76% 29.88 in 10.0 mi South 12.7 mph 18.4 mph N/A   Clear
3:55 AM 50.0 °F - 42.8 °F 76% 29.88 in 10.0 mi South 11.5 mph 17.3 mph N/A   Clear
4:15 AM 50.0 °F - 42.8 °F 76% 29.88 in 10.0 mi SSE 10.4 mph 20.7 mph N/A   Clear
4:35 AM 50.0 °F - 42.8 °F 76% 29.87 in 10.0 mi South 13.8 mph 17.3 mph N/A   Clear
4:55 AM 50.0 °F - 42.8 °F 76% 29.88 in 10.0 mi South 12.7 mph - N/A   Clear
5:15 AM 50.0 °F - 42.8 °F 76% 29.89 in 10.0 mi South 5.8 mph - N/A   Clear
5:35 AM 50.0 °F - 42.8 °F 76% 29.89 in 10.0 mi South 11.5 mph - N/A   Clear
5:55 AM 48.2 °F - 42.8 °F 82% 29.89 in 10.0 mi South 9.2 mph - N/A   Clear
6:15 AM 46.4 °F 41.9 °F 42.8 °F 87% 29.90 in 10.0 mi SSE 9.2 mph - N/A   Clear
6:35 AM 46.4 °F 40.7 °F 42.8 °F 87% 29.89 in 10.0 mi South 12.7 mph - N/A   Clear
6:55 AM 46.4 °F 40.7 °F 42.8 °F 87% 29.90 in 10.0 mi South 12.7 mph 20.7 mph N/A   Clear
7:15 AM 48.2 °F - 42.8 °F 82% 29.90 in 10.0 mi South 10.4 mph 17.3 mph N/A   Clear
7:35 AM 46.4 °F 43.5 °F 42.8 °F 87% 29.92 in 10.0 mi SSE 5.8 mph - N/A   Clear
7:55 AM 48.2 °F - 42.8 °F 82% 29.91 in 10.0 mi South 10.4 mph - N/A   Clear
8:15 AM 50.0 °F - 44.6 °F 82% 29.96 in 10.0 mi NW 8.1 mph - N/A   Scattered Clouds
8:35 AM 51.8 °F - 44.6 °F 76% 29.96 in 10.0 mi South 9.2 mph - N/A   Scattered Clouds
8:55 AM 53.6 °F - 44.6 °F 72% 29.96 in 10.0 mi South 11.5 mph - N/A   Clear
9:15 AM 55.4 °F - 44.6 °F 67% 29.98 in 10.0 mi SSW 6.9 mph - N/A   Clear
9:35 AM 55.4 °F - 44.6 °F 67% 29.98 in 10.0 mi SSW 9.2 mph - N/A   Clear
9:55 AM 60.8 °F - 46.4 °F 59% 29.99 in 10.0 mi SW 13.8 mph 20.7 mph N/A   Clear
10:15 AM 60.8 °F - 46.4 °F 59% 29.99 in 10.0 mi SW 16.1 mph 20.7 mph N/A   Clear
10:35 AM 60.8 °F - 46.4 °F 59% 29.99 in 10.0 mi SW 11.5 mph - N/A   Clear
10:55 AM 62.6 °F - 46.4 °F 55% 29.99 in 10.0 mi SSW 12.7 mph 18.4 mph N/A   Clear
11:15 AM 62.6 °F - 46.4 °F 55% 29.99 in 10.0 mi WSW 12.7 mph - N/A   Clear
11:35 AM 62.6 °F - 46.4 °F 55% 29.99 in 10.0 mi West 9.2 mph - N/A   Clear
11:55 AM 64.4 °F - 46.4 °F 52% 29.98 in 10.0 mi WSW 8.1 mph - N/A   Clear
12:15 PM 64.4 °F - 46.4 °F 52% 29.97 in 10.0 mi Calm Calm - N/A   Clear
12:35 PM 64.4 °F - 46.4 °F 52% 29.97 in 10.0 mi West 8.1 mph - N/A   Clear
12:55 PM 64.4 °F - 46.4 °F 52% 29.97 in 10.0 mi SSW 8.1 mph - N/A   Clear
1:15 PM 66.2 °F - 46.4 °F 49% 29.96 in 10.0 mi South 8.1 mph - N/A   Clear
1:35 PM 66.2 °F - 48.2 °F 52% 29.96 in 10.0 mi WSW 5.8 mph - N/A   Clear
1:55 PM 68.0 °F - 48.2 °F 49% 29.95 in 10.0 mi South 4.6 mph - N/A   Clear
2:15 PM 66.2 °F - 48.2 °F 52% 29.95 in 10.0 mi SSW 5.8 mph - N/A   Scattered Clouds
2:35 PM 66.2 °F - 48.2 °F 52% 29.95 in 10.0 mi SW 5.8 mph - N/A   Mostly Cloudy
2:55 PM 68.0 °F - 50.0 °F 52% 29.95 in 10.0 mi ESE 4.6 mph - N/A   Overcast
3:15 PM 66.2 °F - 50.0 °F 56% 29.95 in 10.0 mi South 6.9 mph - N/A   Mostly Cloudy
3:35 PM 66.2 °F - 50.0 °F 56% 29.95 in 10.0 mi SE 8.1 mph - N/A   Mostly Cloudy
3:55 PM 66.2 °F - 50.0 °F 56% 29.95 in 10.0 mi SE 15.0 mph 18.4 mph N/A   Overcast
4:15 PM 64.4 °F - 51.8 °F 64% 29.95 in 10.0 mi SSE 8.1 mph - N/A   Overcast
4:35 PM 64.4 °F - 51.8 °F 64% 29.95 in 10.0 mi SE 9.2 mph - N/A   Overcast
4:55 PM 64.4 °F - 53.6 °F 68% 29.96 in 10.0 mi SSE 12.7 mph - N/A   Overcast
5:15 PM 64.4 °F - 53.6 °F 68% 29.96 in 10.0 mi SE 15.0 mph - N/A   Overcast
5:35 PM 62.6 °F - 53.6 °F 72% 29.97 in 10.0 mi SE 13.8 mph 21.9 mph N/A   Overcast
5:55 PM 60.8 °F - 53.6 °F 77% 29.98 in 10.0 mi SSE 12.7 mph - N/A   Overcast
6:15 PM 60.8 °F - 53.6 °F 77% 29.99 in 10.0 mi SE 11.5 mph 20.7 mph N/A   Overcast
6:35 PM 60.8 °F - 53.6 °F 77% 29.99 in 10.0 mi SE 10.4 mph - N/A   Overcast
6:55 PM 59.0 °F - 53.6 °F 82% 30.00 in 10.0 mi SSE 12.7 mph 16.1 mph N/A   Overcast
7:15 PM 59.0 °F - 53.6 °F 82% 30.00 in 10.0 mi SSE 8.1 mph - N/A   Overcast
7:35 PM 59.0 °F - 53.6 °F 82% 30.01 in 10.0 mi SSE 10.4 mph - N/A   Overcast
7:55 PM 59.0 °F - 53.6 °F 82% 30.01 in 10.0 mi SSE 11.5 mph 18.4 mph N/A   Overcast
8:15 PM 59.0 °F - 53.6 °F 82% 30.01 in 10.0 mi SSE 12.7 mph 16.1 mph N/A   Overcast
8:35 PM 59.0 °F - 53.6 °F 82% 30.02 in 10.0 mi SSE 10.4 mph 16.1 mph N/A   Overcast
8:55 PM 59.0 °F - 53.6 °F 82% 30.02 in 10.0 mi SSE 12.7 mph 19.6 mph N/A   Overcast
9:15 PM 57.2 °F - 53.6 °F 88% 30.02 in 10.0 mi SSE 11.5 mph - N/A   Overcast
9:35 PM 57.2 °F - 53.6 °F 88% 30.02 in 10.0 mi SSE 11.5 mph 17.3 mph N/A   Overcast
9:55 PM 57.2 °F - 53.6 °F 88% 30.02 in 10.0 mi SSE 11.5 mph 18.4 mph N/A   Overcast
10:15 PM 57.2 °F - 53.6 °F 88% 30.02 in 10.0 mi SSE 9.2 mph - N/A   Overcast
10:35 PM 57.2 °F - 53.6 °F 88% 30.02 in 10.0 mi SSE 11.5 mph - N/A   Overcast
10:55 PM 57.2 °F - 53.6 °F 88% 30.02 in 10.0 mi SSE 10.4 mph 16.1 mph N/A   Overcast
11:15 PM 57.2 °F - 53.6 °F 88% 30.02 in 10.0 mi SSE 11.5 mph 20.7 mph N/A   Overcast
11:35 PM 57.2 °F - 53.6 °F 88% 30.02 in 10.0 mi South 10.4 mph 19.6 mph N/A   Overcast
11:55 PM 57.2 °F - 53.6 °F 88% 30.01 in 10.0 mi South 18.4 mph 24.2 mph N/A   Overcast